Miscellaneous Local Product
Issued by NWS North Platte, NE

Home | Current Version | Previous Version | Text Only | Print | Product List | Glossary On
Versions: 1 2 3 4 5 6 7 8 9 10 11 12 13 14 15 16 17 18 19 20 21 22 23 24 25 26 27 28 29 30 31 32 33 34 35 36 37 38 39 40 41 42 43 44 45 46 47 48 49 50
000
AXUS43 KLBF 171110
MISLBF


WESTERN AND NORTH CENTRAL NEBRASKA HOURLY WEATHER ROUNDUP
NATIONAL WEATHER SERVICE NORTH PLATTE NE
600 AM CDT THU AUG 17 2017

NOTE: "FAIR" INDICATES FEW OR NO CLOUDS BELOW 12,000 FEET WITH NO
SIGNIFICANT WEATHER AND/OR OBSTRUCTIONS TO VISIBILITY.

NOTE: STATIONS NOT REPORTING VARIABLES SUCH AS SKY/WEATHER OR
PRESSURE ARE PROVIDED BY RAWS AND APRS NETWORKS AND ARE NOT UNDER
NATIONAL WEATHER SERVICE QUALITY CONTROL.

...OBSERVATIONS IN AND NEAR THE EASTERN PANHANDLE OF NEBRASKA...

CITY           SKY/WX    TMP DP  RH WIND       PRES   REMARKS
PINE RIDGE     CLEAR     49  48  97 CALM      30.00S
GORDON         FAIR      55  49  81 SW8       30.02F
CHADRON        CLEAR     50  47  89 CALM      29.99S
ALLIANCE       CLEAR     48  45  89 W6        30.05S
SIDNEY         CLEAR     54  51  90 SW10      30.10S
CRESCENT LAKE    N/A     54  49  83 SW3         N/A
$$

...OBSERVATIONS IN NORTHERN NEBRASKA AND FAR SOUTHERN SOUTH DAKOTA...

CITY           SKY/WX    TMP DP  RH WIND       PRES   REMARKS
WINNER         FAIR      57  49  74 W5        29.94R
VALENTINE      CLEAR     53  48  83 CALM      29.99R
THEDFORD       CLEAR     54  52  90 SW7       30.03S
AINSWORTH      CLEAR     53  50  92 W6        29.99R
O`NEILL        CLEAR     55  54  96 W9        29.95R
ORD            CLEAR     52  49  89 NW5       29.96R
BROKEN BOW     CLEAR     57  50  77 CALM      30.00R
VALENTINE NWR    N/A     51  48  89 CALM        N/A
HALSEY           N/A     52  50  92 SW3         N/A
BUTTE            N/A     54  51  90 W3          N/A
CHAMBERS         N/A     56  53  89 CALM        N/A
EWING            N/A     56  54  94 W3          N/A
$$

...OBSERVATIONS IN SOUTHWEST NEBRASKA AND FAR NORTHEAST COLORADO...

CITY           SKY/WX    TMP DP  RH WIND       PRES   REMARKS
HOLYOKE        FAIR      55  54  94 SW6       30.09S
IMPERIAL       CLEAR     52  50  93 W8        30.07R
OGALLALA       CLEAR     50  49  96 CALM      30.06S
NORTH PLATTE   CLEAR     52  51  97 CALM      30.05R
MCCOOK         CLEAR     54  54 100 W6        30.05R
LEXINGTON      CLEAR     54  52  93 W5        30.03R
STAPLETON        N/A     51  49  92 CALM        N/A
GOTHENBURG       N/A     55  51  86 NW3         N/A
CALLAWAY         N/A     52  51  95 NW6         N/A
$$

...OBSERVATIONS IN CENTRAL LINCOLN COUNTY AREA...

CITY           SKY/WX    TMP DP  RH WIND       PRES   REMARKS
N.P. AIRPORT   CLEAR     52  51  97 CALM      30.05R
N.P. SOUTHEAST   N/A     54  52  92 CALM        N/A
N.P. HILLCREST   N/A     54  53  95 CALM        N/A
$$

...SOME OBSERVATIONS FROM AROUND THE REGION...

CITY           SKY/WX    TMP DP  RH WIND       PRES   REMARKS
DENVER         MOCLDY    60  47  61 SW15      30.14F
LIMON          CLOUDY    56  50  80 S3        30.19R
ASPEN          CLOUDY    44  35  70 SW7       30.33S
LARAMIE        CLOUDY    45  39  79 S9        30.25R
CASPER         CLOUDY    60  43  53 SW7       30.08S
CHEYENNE       CLOUDY    53  44  71 W9        30.17F
SCOTTSBLUFF    CLEAR     53  49  86 E8        30.06S
GRAND ISLAND   CLEAR     57  56  96 W8        29.98R
OMAHA          CLOUDY    66  60  81 W8        29.86R
SIOUX FALLS    MOCLDY    63  61  93 NW13G24   29.80R
PIERRE         CLEAR     55  49  80 W5        29.90S
RAPID CITY     CLEAR     53  49  86 SE5       29.95S
BISMARCK       CLOUDY    56  55  97 CALM      29.90S
KANSAS CITY    CLOUDY    65  63  93 W7        29.89R
HILL CITY      CLEAR     58  57  97 W7        30.06R
WICHITA        PTCLDY    66  63  90 NW6       29.97R
DODGE CITY     CLEAR     58  56  93 NW6       30.07S
OKLAHOMA CITY  CLOUDY    70  68  93 CALM      29.96R
DALLAS         TSTM      75  71  87 NE25G35   29.96R FOG
AMARILLO       CLEAR     64  58  80 NE5       30.12S
$$




USA.gov is the U.S. government's official web portal to all federal, state and local government web resources and services.